Terminal Aerodrome Forecast
Issued by NWS

Home | Current Version | Previous Version | Text Only | Print | Product List | Glossary On
Versions: 1 2 3 4 5 6 7 8 9 10 11 12 13 14 15 16 17 18
000
FTUS43 KIND 011500 AAB
TAFBMG
TAF AMD
KBMG 011538Z 0116/0212 14008KT 4SM -RASN BR BKN020 OVC040
     FM011800 18009KT 3SM -RA BR BKN015 OVC025
     FM012200 22008KT 2SM -RASN BR OVC006
     FM020200 28010KT 3SM -RASN BR OVC007
     FM020500 32010KT P6SM -SHSN OVC020=

USA.gov is the U.S. government's official web portal to all federal, state and local government web resources and services.